Simultaneous Nadir Overpasses (SNOs) Predictions

Prediction of SNOs between TERRA and METOP-C Satellite Orbit:

Table of predicted SNOs for the next 14.0 days since TLE Epoch: 6/15/2019
Index Date (TERRA) Time (TERRA) Lat,Lon (TERRA) SZA (TERRA ) Date (METOP-C) Time (METOP-C) Lat,Lon (METOP-C) SZA (METOP-C ) Distance(km) Time Diff (sec)
1 06/17/2019 14:12:04 81.29, 14.07 60.81 06/17/2019 14:11:57 81.30, 14.15 60.82 1.54 7
2 06/17/2019 15:01:30 -81.31,-178.02 119.15 06/17/2019 15:02:37 -81.31,-177.87 119.10 2.45 67
3 06/20/2019 08:56:52 -81.29, -87.25 119.28 06/20/2019 08:55:41 -81.30, -87.06 119.29 3.34 71
4 06/20/2019 09:46:18 81.29, 80.47 60.73 06/20/2019 09:46:20 81.30, 80.64 60.76 3.05 2
5 06/23/2019 04:31:05 -81.31, -20.46 119.25 06/23/2019 04:30:04 -81.30, -20.58 119.29 2.18 61
6 06/23/2019 05:20:31 81.31, 147.23 60.77 06/23/2019 05:20:43 81.30, 147.14 60.76 1.62 12
7 06/26/2019 00:05:18 -81.30, 45.92 119.22 06/26/2019 00:04:26 -81.30, 45.90 119.24 0.51 52
8 06/26/2019 00:54:44 81.30,-146.43 60.79 06/26/2019 00:55:05 81.30,-146.36 60.81 1.11 21
9 06/28/2019 19:39:32 -81.30, 112.27 119.14 06/28/2019 19:38:49 -81.30, 112.38 119.14 1.92 43




NCC Satellite Simultaneous Nadir Overpasses (SNOs) Prediction Service
